Regional Weather Roundup
Issued by NWS

Current Version | Previous Version | Text Only | Print | Product List | Glossary On
Versions: 1 2 3 4 5 6 7 8 9 10 11 12 13 14 15 16 17 18 19 20 21 22 23 24 25 26 27 28 29 30 31 32 33 34 35 36 37 38 39 40 41 42 43 44 45 46 47 48 49 50
000
ASUS43 KMPX 240801
RWRMN
WEATHER ROUNDUP FOR MINNESOTA
NATIONAL WEATHER SERVICE TWIN CITIES/CHANHASSEN MN
300 AM CDT THU AUG 24 2017


NOTE: "FAIR" INDICATES FEW OR NO CLOUDS BELOW 12,000 FEET WITH NO
SIGNIFICANT WEATHER AND/OR OBSTRUCTIONS TO VISIBILITY. N/A MEANS
CURRENT SKY AND/OR WEATHER CONDITIONS ARE NOT AVAILABLE.

MNZ060>063-068>070-240900-
   Twin Cities Metro

CITY           SKY/WX    TMP DP  RH WIND       PRES   REMARKS
TWIN CITIES    CLOUDY    61  53  75 E8        30.10S
ST PAUL        CLOUDY    60  55  83 E9        30.10F
CRYSTAL        CLOUDY    59  51  75 NE3       30.09F
LAKEVILLE      CLOUDY    57  55  94 NE6       30.11R
EDEN PRAIRIE   CLOUDY    63  53  70 E9        30.09R
SOUTH ST PAUL  CLOUDY    61  52  72 E6        30.10F
LAKE ELMO      CLOUDY    57  55  94 CALM      30.12F
$$
MNZ001>005-007-008-013>017-022>024-027-028-240900-
   Northwest Minnesota

CITY           SKY/WX    TMP DP  RH WIND       PRES   REMARKS
BEMIDJI        CLEAR     48  48 100 CALM      30.12S
HALLOCK        CLEAR     45  45 100 E6        30.12S
ROSEAU         FOG       39  36  87 NE3       30.14S VSB 1/2
WARROAD        CLEAR     41  37  87 CALM      30.15R
CROOKSTON      PTCLDY    54  52  94 E7        30.11R
FOSSTON        PTCLDY    52  50  93 CALM      30.12R
DETROIT LAKES  CLEAR     54  52  94 SE5       30.11R
MOORHEAD       PTCLDY    57  54  88 E6        30.07R
PARK RAPIDS    CLOUDY    56  53  90 CALM      30.11S
MAHNOMEN       CLOUDY    53  52  97 CALM      30.10R
$$
MNZ006-009>011-018-025>026-240900-
   North Central Minnesota

CITY           SKY/WX    TMP DP  RH WIND       PRES   REMARKS
BAUDETTE       CLEAR     45  45 100 E3        30.14S
FLAG ISLAND      N/A     55  46  71 CALM      30.13R
INTL FALLS     CLEAR     36  33  89 CALM      30.14R
WASKISH        FOG       43  43 100 CALM      30.14R VSB 1/2
BIG FORK       FOG       39  39 100 CALM      30.14R VSB 3/4
LONGVILLE      MOCLDY    48  48 100 CALM      30.12S FOG
GRAND RAPIDS   FOG       47  46  97 CALM      30.14S VSB 1/4
CRANE LAKE     CLEAR     36  36 100 CALM      30.17R
ORR            CLEAR     39  37  93 CALM      30.12S
COOK           CLEAR     41  41 100 CALM      30.15R
WALKER         CLOUDY    53  52  97 E3        30.12S
$$
MNZ012-019>021-037-240900-
   Northeast Minnesota

CITY           SKY/WX    TMP DP  RH WIND       PRES   REMARKS
DULUTH         CLEAR     50  50 100 NE5       30.11S
ELY            CLEAR     37  37 100 CALM      30.14S
HIBBING        FOG       42  42 100 NW3       30.13R VSB 1/4
EVELETH        CLEAR     43  40  90 CALM      30.15R
DULUTH HARBOR  PTCLDY    55  54  94 CALM      30.12R
TWO HARBORS    CLEAR     52  45  76 NE5       30.11R
SILVER BAY     CLEAR     43  43 100 CALM      30.12R
GRAND MARAIS     N/A     51  37  58 N7        30.12R
$$
MNZ029>031-032-039>041-046>048-054>057-064-240900-
   West Central Minnesota

CITY           SKY/WX    TMP DP  RH WIND       PRES   REMARKS
FERGUS FALLS   PTCLDY    57  54  88 E8        30.07S
WHEATON        PTCLDY    57  50  77 E13       30.07F
MORRIS         PTCLDY    57  52  82 E10       30.06R
ALEXANDRIA     CLOUDY    56  53  90 E8        30.10S
ELBOW LAKE     FAIR      56  55  95 SE13      30.07F
WADENA         MOCLDY    52  52 100 E3        30.09F
GLENWOOD       HVY RAIN  55  54  94 E10       30.09S
APPLETON       CLEAR     61  54  77 E12       30.05R
BENSON         CLEAR     57  50  77 SE8       30.08S
ORTONVILLE     PTCLDY    61  54  77 MISG      30.04S
MADISON        CLOUDY    64  55  72 E8        30.03S
WILLMAR        FAIR      59  52  77 E12       30.09S
$$
MNZ033>034-036-042>043-049>051-058-059-240900-
   Central Minnesota

CITY           SKY/WX    TMP DP  RH WIND       PRES   REMARKS
ST CLOUD       MOCLDY    55  53  93 E5        30.10S
SAUK CENTRE    FAIR      55  52  88 E6        30.10S
PAYNESVILLE    CLOUDY    59  51  75 E6        30.09F
AITKIN         FOG       48  48 100 CALM      30.11R VSB 1
PINE RIVER     CLOUDY    52  52 100 CALM      30.15R
BRAINERD       CLOUDY    54  53  97 NE3       30.12R
STAPLES        MOCLDY    52  52 100 CALM      30.10F
LONG PRAIRIE   FAIR      52  50  93 CALM      30.10F
LITTLE FALLS   CLOUDY    50  48  93 CALM      30.10S
LITCHFIELD     MOCLDY    61  54  77 E10       30.10S
BUFFALO        CLOUDY    58  51  75 E6        30.11S
MAPLE LAKE     MOCLDY    59  53  80 E9        30.10F
HUTCHINSON     CLOUDY    60  54  80 NE12      30.10S
$$
MNZ037-044-045-052-053-240900-
   East Central Minnesota

CITY           SKY/WX    TMP DP  RH WIND       PRES   REMARKS
PRINCETON      CLOUDY    55  54  94 CALM      30.10F
MORA           CLOUDY    54  52  94 CALM      30.13R
CAMBRIDGE      LGT RAIN  57  54  88 CALM      30.10F
RUSH CITY      LGT RAIN  54  53  95 CALM      30.11F
MOOSE LAKE     FOG       45  45 100 CALM      30.11S VSB 1/2
HINCKLEY       CLOUDY    52  52 100 CALM      30.12R FOG
CLOQUET        CLEAR     48  45  87 NW3       30.12R FOG
MCGREGOR       CLOUDY    48  46  93 CALM      30.13R VSB 1/4
$$
MNZ071>073-080-081-089-090-097-098-240900-
   Southwest Minnesota

CITY           SKY/WX    TMP DP  RH WIND       PRES   REMARKS
MONTEVIDEO     PTCLDY    59  54  82 SE12G17   30.06R
GRANITE FALLS  MOCLDY    62  55  77 E5        30.06S
CANBY          MOCLDY    60  57  89 CALM      30.04S
MARSHALL       CLOUDY    62  57  83 E7        30.04S
REDWOOD FALLS  CLEAR     60  53  77 E8        30.05S
OLIVIA         MOCLDY    59  54  82 E9        30.06S
PIPESTONE      CLOUDY    64  59  82 SE9       30.02S
WINDOM         RAIN      63  59  88 CALM      30.07R
WORTHINGTON    CLOUDY    62  60  93 E5        30.05S
JACKSON        LGT SNOW  61  61 100 CALM      30.06F
TRACY          CLOUDY    63  61  94 E5        30.05R
SLAYTON        CLOUDY    64  58  82 NE8       30.05R
$$
MNZ065>067-074>077-082>085-091>093-240900-
   South Central Minnesota

CITY           SKY/WX    TMP DP  RH WIND       PRES   REMARKS
MANKATO        CLOUDY    61  56  83 E7        30.08R
NEW ULM        MOCLDY    61  54  77 E7        30.06S
ST JAMES       CLOUDY    59  55  88 SE3       30.07S
FAIRMONT       CLOUDY    61  57  87 S3        30.07R
GLENCOE        CLOUDY    61  58  89 NE5       30.09R
FARIBAULT      CLOUDY    61  54  77 E5        30.09S
OWATONNA       CLOUDY    57  54  88 E6        30.09R
WASECA         CLOUDY    55  52  88 E5        30.09S
ALBERT LEA     MOCLDY    59  57  94 CALM      30.08S
$$
MNZ078>079-086>088-094>096-240900-
   Southeast Minnesota

CITY           SKY/WX    TMP DP  RH WIND       PRES   REMARKS
ROCHESTER      MOCLDY    55  52  89 E7        30.10S
RED WING       CLOUDY    61  52  72 NE7       30.11R
STANTON        CLOUDY    58  55  89 E3        30.09S
DODGE CENTER   PTCLDY    54  50  87 E8        30.10S
WINONA         CLOUDY    57  54  88 CALM      30.12R
AUSTIN         PTCLDY    54  50  87 CALM      30.09R
PRESTON        CLOUDY    53  51  92 N5        30.11R
$$
ABBREVIATIONS USED IN REMARKS
   TC - TEMPERATURES IN CELSIUS
  WCI - WIND CHILL INDEX
   HX - HEAT INDEX
  VSB - VISIBILITY
$$



USA.gov is the U.S. government's official web portal to all federal, state and local government web resources and services.